Time,TemperatureF,DewpointF,PressureIn,WindDirection,WindDirectionDegrees,WindSpeedMPH,WindSpeedGustMPH,Humidity,HourlyPrecipIn,Conditions,Clouds,dailyrainin,SoftwareType,DateUTC
2013-05-08 00:00:00,56.6,54.0,30.33,SSE,158,0.0,0.0,91,0.00,,OVC220,0.00,VWS V14.01,2013-05-08 04:00:00,
2013-05-08 00:05:00,56.4,53.8,30.32,SSE,158,0.0,0.0,91,0.00,,OVC220,0.00,VWS V14.01,2013-05-08 04:05:00,
2013-05-08 00:10:00,56.3,53.7,30.32,SSE,158,0.0,0.0,91,0.00,,OVC220,0.00,VWS V14.01,2013-05-08 04:10:00,
2013-05-08 00:15:00,56.2,53.9,30.32,SSE,158,0.0,0.0,92,0.00,,OVC220,0.00,VWS V14.01,2013-05-08 04:15:00,
2013-05-08 00:20:00,56.1,53.8,30.32,SSE,158,0.0,0.0,92,0.00,,OVC220,0.00,VWS V14.01,2013-05-08 04:20:00,
2013-05-08 00:25:00,56.0,53.7,30.32,SSE,158,0.0,0.0,92,0.00,,OVC220,0.00,VWS V14.01,2013-05-08 04:25:00,
2013-05-08 00:30:00,56.0,53.7,30.32,SSE,158,0.0,0.0,92,0.00,,OVC220,0.00,VWS V14.01,2013-05-08 04:30:00,
2013-05-08 00:35:00,56.0,54.0,30.32,SSE,158,0.0,0.0,93,0.00,,OVC220,0.00,VWS V14.01,2013-05-08 04:35:00,
2013-05-08 00:40:00,56.0,54.0,30.32,SSE,158,0.0,0.0,93,0.00,,OVC220,0.00,VWS V14.01,2013-05-08 04:40:00,
2013-05-08 00:45:00,56.0,54.0,30.31,SSE,158,0.0,0.0,93,0.00,,OVC220,0.00,VWS V14.01,2013-05-08 04:45:00,
2013-05-08 00:50:00,56.0,54.0,30.31,SSE,158,0.0,0.0,93,0.00,,OVC220,0.00,VWS V14.01,2013-05-08 04:50:00,
2013-05-08 00:55:00,56.0,54.0,30.31,SSE,158,0.0,0.0,93,0.00,,OVC220,0.00,VWS V14.01,2013-05-08 04:55:00,
2013-05-08 01:00:00,56.0,54.3,30.31,SSE,158,0.0,0.0,94,0.00,,OVC220,0.00,VWS V14.01,2013-05-08 05:00:00,
2013-05-08 01:05:00,56.0,54.3,30.30,SSE,158,0.0,0.0,94,0.00,,OVC220,0.00,VWS V14.01,2013-05-08 05:05:00,
2013-05-08 01:10:00,56.0,54.3,30.30,SSE,158,0.0,0.0,94,0.00,,OVC220,0.00,VWS V14.01,2013-05-08 05:10:00,
2013-05-08 01:15:00,56.0,54.3,30.30,SSE,158,0.0,0.0,94,0.00,,OVC220,0.00,VWS V14.01,2013-05-08 05:15:00,
2013-05-08 01:20:00,56.0,54.3,30.30,SSE,158,0.0,0.0,94,0.00,,OVC220,0.00,VWS V14.01,2013-05-08 05:20:00,
2013-05-08 01:25:00,56.0,54.3,30.30,SSE,158,0.0,0.0,94,0.00,,OVC220,0.00,VWS V14.01,2013-05-08 05:25:00,
2013-05-08 01:30:00,56.0,54.3,30.30,SSE,158,0.0,0.0,94,0.00,,OVC220,0.00,VWS V14.01,2013-05-08 05:30:00,
2013-05-08 01:35:00,56.0,54.3,30.30,SSE,158,0.0,0.0,94,0.00,,OVC220,0.00,VWS V14.01,2013-05-08 05:35:00,
2013-05-08 01:40:00,55.9,54.2,30.29,SSE,158,0.0,0.0,94,0.00,,OVC220,0.00,VWS V14.01,2013-05-08 05:40:00,
2013-05-08 01:45:00,55.7,54.0,30.29,SSE,158,0.0,0.0,94,0.00,,OVC220,0.00,VWS V14.01,2013-05-08 05:45:00,
2013-05-08 01:50:00,55.6,53.9,30.29,SSE,158,0.0,0.0,94,0.00,,OVC220,0.00,VWS V14.01,2013-05-08 05:50:00,
2013-05-08 01:55:00,55.6,54.2,30.29,SSE,158,0.0,0.0,95,0.00,,OVC220,0.00,VWS V14.01,2013-05-08 05:55:00,
2013-05-08 02:00:00,55.5,54.1,30.29,SSE,158,0.0,0.0,95,0.00,,OVC220,0.00,VWS V14.01,2013-05-08 06:00:00,
2013-05-08 02:05:00,55.5,54.1,30.29,SSE,158,0.0,0.0,95,0.00,,OVC220,0.00,VWS V14.01,2013-05-08 06:05:00,
2013-05-08 02:10:00,55.5,54.1,30.29,SSE,158,0.0,0.0,95,0.00,,OVC220,0.00,VWS V14.01,2013-05-08 06:10:00,
2013-05-08 02:15:00,55.3,53.9,30.29,SSE,158,0.0,0.0,95,0.00,,OVC220,0.00,VWS V14.01,2013-05-08 06:15:00,
2013-05-08 02:20:00,55.3,53.9,30.28,SSE,158,0.0,0.0,95,0.00,,OVC220,0.00,VWS V14.01,2013-05-08 06:20:00,
2013-05-08 02:25:00,55.2,53.8,30.28,SSE,158,0.0,0.0,95,0.00,,OVC220,0.00,VWS V14.01,2013-05-08 06:25:00,
2013-05-08 02:30:00,55.1,53.7,30.28,SSE,158,0.0,0.0,95,0.00,,OVC220,0.00,VWS V14.01,2013-05-08 06:30:00,
2013-05-08 02:35:00,54.9,53.5,30.28,SSE,158,0.0,0.0,95,0.00,,OVC220,0.00,VWS V14.01,2013-05-08 06:35:00,
2013-05-08 02:40:00,54.7,53.3,30.28,SSE,158,0.0,0.0,95,0.00,,OVC220,0.00,VWS V14.01,2013-05-08 06:40:00,
2013-05-08 02:45:00,54.7,53.3,30.28,SSE,158,0.0,0.0,95,0.00,,OVC220,0.00,VWS V14.01,2013-05-08 06:45:00,
2013-05-08 02:50:00,54.6,53.5,30.28,SSE,158,0.0,0.0,96,0.00,,OVC220,0.00,VWS V14.01,2013-05-08 06:50:00,
2013-05-08 02:55:00,54.4,53.3,30.28,SSE,158,0.0,0.0,96,0.00,,OVC220,0.00,VWS V14.01,2013-05-08 06:55:00,
2013-05-08 03:00:00,54.4,53.3,30.28,SSE,158,0.0,0.0,96,0.00,,OVC220,0.00,VWS V14.01,2013-05-08 07:00:00,
2013-05-08 03:05:00,54.4,53.3,30.28,SSE,158,0.0,0.0,96,0.00,,OVC220,0.00,VWS V14.01,2013-05-08 07:05:00,
2013-05-08 03:10:00,54.4,53.3,30.28,SSE,158,0.0,0.0,96,0.00,,OVC220,0.00,VWS V14.01,2013-05-08 07:10:00,
2013-05-08 03:15:00,54.4,53.6,30.28,SSE,158,0.0,0.0,97,0.00,,OVC220,0.00,VWS V14.01,2013-05-08 07:15:00,
2013-05-08 03:20:00,54.4,53.6,30.28,SSE,158,0.0,0.0,97,0.00,,OVC220,0.00,VWS V14.01,2013-05-08 07:20:00,
2013-05-08 03:25:00,54.3,53.5,30.28,SSE,158,0.0,0.0,97,0.00,,OVC220,0.00,VWS V14.01,2013-05-08 07:25:00,
2013-05-08 03:30:00,54.2,53.4,30.28,SSE,158,0.0,0.0,97,0.00,,OVC220,0.00,VWS V14.01,2013-05-08 07:30:00,
2013-05-08 03:35:00,54.3,53.5,30.28,SSE,158,0.0,0.0,97,0.00,,OVC220,0.00,VWS V14.01,2013-05-08 07:35:00,
2013-05-08 03:40:00,54.3,53.5,30.29,SSE,158,0.0,0.0,97,0.00,,OVC220,0.00,VWS V14.01,2013-05-08 07:40:00,
2013-05-08 03:45:00,54.5,53.7,30.29,SSE,158,0.0,0.0,97,0.00,,OVC220,0.00,VWS V14.01,2013-05-08 07:45:00,
2013-05-08 03:50:00,54.6,53.8,30.29,SSE,158,0.0,0.0,97,0.00,,OVC220,0.00,VWS V14.01,2013-05-08 07:50:00,
2013-05-08 03:55:00,54.4,53.6,30.29,SSE,158,0.0,0.0,97,0.00,,OVC220,0.00,VWS V14.01,2013-05-08 07:55:00,
2013-05-08 04:00:00,54.6,54.0,30.29,SSE,158,0.0,0.0,98,0.00,,OVC220,0.00,VWS V14.01,2013-05-08 08:00:00,
2013-05-08 04:05:00,54.6,54.0,30.28,SSE,158,0.0,0.0,98,0.00,,OVC220,0.00,VWS V14.01,2013-05-08 08:05:00,
2013-05-08 04:10:00,54.6,54.0,30.28,SSE,158,0.0,2.0,98,0.00,,OVC220,0.00,VWS V14.01,2013-05-08 08:10:00,
2013-05-08 04:15:00,54.4,53.8,30.28,SSE,158,0.0,0.0,98,0.00,,OVC220,0.00,VWS V14.01,2013-05-08 08:15:00,
2013-05-08 04:20:00,54.2,53.7,30.28,SSE,158,0.0,0.0,98,0.00,,OVC220,0.00,VWS V14.01,2013-05-08 08:20:00,
2013-05-08 04:25:00,54.1,53.5,30.27,SSE,158,0.0,0.0,98,0.00,,OVC220,0.00,VWS V14.01,2013-05-08 08:25:00,
2013-05-08 04:30:00,54.0,53.5,30.27,SSE,158,0.0,0.0,98,0.00,,OVC220,0.00,VWS V14.01,2013-05-08 08:30:00,
2013-05-08 04:35:00,54.1,53.5,30.27,SSE,158,0.0,0.0,98,0.00,,OVC220,0.00,VWS V14.01,2013-05-08 08:35:00,
2013-05-08 04:40:00,54.0,53.5,30.28,SSE,158,0.0,0.0,98,0.00,,OVC220,0.00,VWS V14.01,2013-05-08 08:40:00,
2013-05-08 04:45:00,54.0,53.5,30.28,SSE,158,0.0,0.0,98,0.00,,OVC220,0.00,VWS V14.01,2013-05-08 08:45:00,
2013-05-08 04:50:00,54.0,53.5,30.28,SSE,158,0.0,0.0,98,0.00,,OVC220,0.00,VWS V14.01,2013-05-08 08:50:00,
2013-05-08 04:55:00,54.2,53.7,30.28,SSE,158,0.0,0.0,98,0.00,,OVC220,0.00,VWS V14.01,2013-05-08 08:55:00,
2013-05-08 05:00:00,54.3,53.8,30.28,SSE,158,0.0,0.0,98,0.00,,OVC220,0.00,VWS V14.01,2013-05-08 09:00:00,
2013-05-08 05:05:00,54.4,53.8,30.28,SSE,158,0.0,0.0,98,0.00,,OVC220,0.00,VWS V14.01,2013-05-08 09:05:00,
2013-05-08 05:10:00,54.4,53.8,30.28,SSE,158,0.0,0.0,98,0.00,,OVC220,0.00,VWS V14.01,2013-05-08 09:10:00,
2013-05-08 05:15:00,54.5,54.0,30.27,SSE,158,0.0,0.0,98,0.00,,OVC220,0.00,VWS V14.01,2013-05-08 09:15:00,
2013-05-08 05:20:00,54.6,54.3,30.27,SSE,158,0.0,0.0,99,0.00,,OVC220,0.00,VWS V14.01,2013-05-08 09:20:00,
2013-05-08 05:25:00,54.6,54.3,30.27,SSE,158,0.0,0.0,99,0.00,,OVC220,0.00,VWS V14.01,2013-05-08 09:25:00,
2013-05-08 05:30:00,54.6,54.3,30.27,SSE,158,0.0,0.0,99,0.00,,OVC220,0.00,VWS V14.01,2013-05-08 09:30:00,
2013-05-08 05:35:00,54.6,54.3,30.28,SSE,158,0.0,0.0,99,0.00,,OVC220,0.00,VWS V14.01,2013-05-08 09:35:00,
2013-05-08 05:40:00,54.4,54.1,30.28,SSE,158,0.0,0.0,99,0.00,,OVC220,0.00,VWS V14.01,2013-05-08 09:40:00,
2013-05-08 05:45:00,54.4,54.1,30.28,SSE,158,0.0,4.0,99,0.00,,OVC220,0.00,VWS V14.01,2013-05-08 09:45:00,
2013-05-08 05:50:00,54.5,54.2,30.28,SSE,158,0.0,5.0,99,0.00,,OVC220,0.00,VWS V14.01,2013-05-08 09:50:00,
2013-05-08 05:55:00,54.6,54.3,30.28,SSE,158,0.0,0.0,99,0.00,,OVC220,0.00,VWS V14.01,2013-05-08 09:55:00,
2013-05-08 06:00:00,54.6,54.3,30.28,SSE,158,0.0,0.0,99,0.00,,OVC220,0.00,VWS V14.01,2013-05-08 10:00:00,
2013-05-08 06:05:00,54.6,54.3,30.28,SSE,158,0.0,1.0,99,0.00,,OVC220,0.00,VWS V14.01,2013-05-08 10:05:00,
2013-05-08 06:10:00,54.6,54.3,30.28,SSE,158,0.0,8.0,99,0.00,,OVC220,0.00,VWS V14.01,2013-05-08 10:10:00,
2013-05-08 06:15:00,54.6,54.3,30.29,SSE,158,0.0,0.0,99,0.00,,OVC220,0.00,VWS V14.01,2013-05-08 10:15:00,
2013-05-08 06:20:00,54.6,54.3,30.29,SSE,158,0.0,0.0,99,0.00,,OVC220,0.00,VWS V14.01,2013-05-08 10:20:00,
2013-05-08 06:25:00,54.6,54.3,30.29,SSE,158,0.0,0.0,99,0.00,,OVC220,0.00,VWS V14.01,2013-05-08 10:25:00,
2013-05-08 06:30:00,54.6,54.3,30.30,SSE,158,0.0,0.0,99,0.00,,OVC220,0.00,VWS V14.01,2013-05-08 10:30:00,
2013-05-08 06:35:00,54.7,54.4,30.30,SSE,158,0.0,0.0,99,0.00,,OVC220,0.00,VWS V14.01,2013-05-08 10:35:00,
2013-05-08 06:40:00,54.9,54.6,30.30,SSE,158,0.0,0.0,99,0.00,,OVC220,0.00,VWS V14.01,2013-05-08 10:40:00,
2013-05-08 06:45:00,55.0,54.7,30.30,SSE,158,0.0,0.0,99,0.00,,OVC220,0.00,VWS V14.01,2013-05-08 10:45:00,
2013-05-08 06:50:00,55.3,55.0,30.30,SSE,158,0.0,0.0,99,0.00,,OVC220,0.00,VWS V14.01,2013-05-08 10:50:00,
2013-05-08 06:55:00,55.5,55.2,30.30,SSE,158,0.0,1.0,99,0.00,,OVC220,0.00,VWS V14.01,2013-05-08 10:55:00,
2013-05-08 07:00:00,55.5,55.2,30.31,SSE,158,0.0,6.0,99,0.00,,OVC220,0.00,VWS V14.01,2013-05-08 11:00:00,
2013-05-08 07:05:00,55.4,55.1,30.31,SSE,158,2.0,14.0,99,0.00,,OVC220,0.00,VWS V14.01,2013-05-08 11:05:00,
2013-05-08 07:10:00,55.3,55.0,30.31,SSE,158,0.0,14.0,99,0.00,,OVC220,0.00,VWS V14.01,2013-05-08 11:10:00,
2013-05-08 07:15:00,55.3,55.0,30.31,SSE,158,1.0,7.0,99,0.00,,OVC220,0.00,VWS V14.01,2013-05-08 11:15:00,
2013-05-08 07:20:00,55.2,54.9,30.31,SSE,158,1.0,5.0,99,0.00,,OVC220,0.00,VWS V14.01,2013-05-08 11:20:00,
2013-05-08 07:25:00,55.2,54.9,30.31,SSE,158,2.0,12.0,99,0.00,,OVC220,0.00,VWS V14.01,2013-05-08 11:25:00,
2013-05-08 07:30:00,55.2,54.9,30.31,SSE,158,4.0,15.0,99,0.00,,OVC220,0.00,VWS V14.01,2013-05-08 11:30:00,
2013-05-08 07:35:00,55.2,54.9,30.31,SSE,158,3.0,16.0,99,0.00,,OVC220,0.00,VWS V14.01,2013-05-08 11:35:00,
2013-05-08 07:40:00,55.3,55.0,30.31,SSE,158,1.0,5.0,99,0.00,,OVC220,0.00,VWS V14.01,2013-05-08 11:40:00,
2013-05-08 07:45:00,55.4,55.1,30.31,SSE,158,1.0,7.0,99,0.00,,OVC220,0.00,VWS V14.01,2013-05-08 11:45:00,
2013-05-08 07:50:00,55.5,55.2,30.31,SSE,158,4.0,11.0,99,0.00,,OVC220,0.00,VWS V14.01,2013-05-08 11:50:00,
2013-05-08 07:55:00,55.6,55.3,30.31,SSE,158,0.0,0.0,99,0.00,,OVC220,0.00,VWS V14.01,2013-05-08 11:55:00,
2013-05-08 08:00:00,55.8,55.5,30.31,SSE,158,2.0,14.0,99,0.00,,OVC220,0.00,VWS V14.01,2013-05-08 12:00:00,
2013-05-08 08:05:00,55.9,55.6,30.31,SSE,158,1.0,6.0,99,0.00,,OVC220,0.00,VWS V14.01,2013-05-08 12:05:00,
2013-05-08 08:10:00,56.0,55.7,30.31,SSE,158,1.0,9.0,99,0.00,,OVC220,0.00,VWS V14.01,2013-05-08 12:10:00,
2013-05-08 08:15:00,56.0,55.7,30.31,SSE,158,1.0,11.0,99,0.00,,OVC220,0.00,VWS V14.01,2013-05-08 12:15:00,
2013-05-08 08:20:00,56.2,55.9,30.31,SSE,158,0.0,1.0,99,0.00,,OVC220,0.00,VWS V14.01,2013-05-08 12:20:00,
2013-05-08 08:25:00,56.2,55.9,30.31,SSE,158,1.0,6.0,99,0.00,,OVC220,0.00,VWS V14.01,2013-05-08 12:25:00,
2013-05-08 08:30:00,56.3,56.0,30.30,SSE,158,2.0,12.0,99,0.00,,OVC220,0.00,VWS V14.01,2013-05-08 12:30:00,
2013-05-08 08:35:00,56.4,56.1,30.31,SSE,158,0.0,2.0,99,0.00,,OVC220,0.00,VWS V14.01,2013-05-08 12:35:00,
2013-05-08 08:40:00,56.5,55.9,30.31,SSE,158,0.0,6.0,98,0.00,,OVC220,0.00,VWS V14.01,2013-05-08 12:40:00,
2013-05-08 08:45:00,56.6,56.0,30.31,SSE,158,0.0,0.0,98,0.00,,OVC220,0.00,VWS V14.01,2013-05-08 12:45:00,
2013-05-08 08:50:00,56.9,56.3,30.31,SSE,158,1.0,7.0,98,0.00,,OVC220,0.00,VWS V14.01,2013-05-08 12:50:00,
2013-05-08 08:55:00,57.0,56.4,30.31,SSE,158,3.0,16.0,98,0.00,,OVC220,0.00,VWS V14.01,2013-05-08 12:55:00,
2013-05-08 09:00:00,57.2,56.6,30.30,SSE,158,3.0,9.0,98,0.00,,OVC220,0.00,VWS V14.01,2013-05-08 13:00:00,
2013-05-08 09:05:00,57.5,56.7,30.30,SSE,158,5.0,17.0,97,0.00,,OVC220,0.00,VWS V14.01,2013-05-08 13:05:00,
2013-05-08 09:10:00,57.7,56.9,30.30,SE,135,4.0,9.0,97,0.00,,OVC220,0.00,VWS V14.01,2013-05-08 13:10:00,
2013-05-08 09:15:00,57.9,56.8,30.30,SE,135,3.0,13.0,96,0.00,,OVC220,0.00,VWS V14.01,2013-05-08 13:15:00,
2013-05-08 09:20:00,58.2,57.1,30.30,SE,135,3.0,15.0,96,0.00,,OVC220,0.00,VWS V14.01,2013-05-08 13:20:00,
2013-05-08 09:25:00,58.7,57.6,30.30,SE,135,0.0,5.0,96,0.00,,OVC220,0.00,VWS V14.01,2013-05-08 13:25:00,
2013-05-08 09:30:00,59.0,57.6,30.30,SE,135,3.0,15.0,95,0.00,,OVC220,0.00,VWS V14.01,2013-05-08 13:30:00,
2013-05-08 09:35:00,59.1,57.4,30.30,SE,135,0.0,0.0,94,0.00,,OVC220,0.00,VWS V14.01,2013-05-08 13:35:00,
2013-05-08 09:40:00,59.0,57.0,30.30,SE,135,2.0,12.0,93,0.00,,OVC220,0.00,VWS V14.01,2013-05-08 13:40:00,
2013-05-08 09:45:00,59.0,57.0,30.30,SE,135,5.0,13.0,93,0.00,,OVC220,0.00,VWS V14.01,2013-05-08 13:45:00,
2013-05-08 09:50:00,59.3,57.3,30.30,SE,135,4.0,21.0,93,0.00,,OVC220,0.00,VWS V14.01,2013-05-08 13:50:00,
2013-05-08 09:55:00,59.6,57.3,30.30,ESE,112,5.0,13.0,92,0.00,,OVC220,0.00,VWS V14.01,2013-05-08 13:55:00,
2013-05-08 10:00:00,60.0,57.7,30.30,ESE,112,7.0,22.0,92,0.00,,OVC220,0.00,VWS V14.01,2013-05-08 14:00:00,
2013-05-08 10:05:00,60.3,57.7,30.30,East,90,5.0,17.0,91,0.00,,OVC220,0.00,VWS V14.01,2013-05-08 14:05:00,
2013-05-08 10:10:00,60.4,57.5,30.29,East,90,4.0,14.0,90,0.00,,OVC220,0.00,VWS V14.01,2013-05-08 14:10:00,
2013-05-08 10:15:00,60.6,57.3,30.30,East,90,5.0,20.0,89,0.00,,OVC220,0.00,VWS V14.01,2013-05-08 14:15:00,
2013-05-08 10:20:00,60.8,57.5,30.29,East,90,4.0,17.0,89,0.00,,OVC220,0.00,VWS V14.01,2013-05-08 14:20:00,
2013-05-08 10:25:00,61.1,58.2,30.29,East,90,2.0,8.0,90,0.00,,OVC220,0.00,VWS V14.01,2013-05-08 14:25:00,
2013-05-08 10:30:00,61.5,58.2,30.29,East,90,4.0,22.0,89,0.00,,OVC220,0.00,VWS V14.01,2013-05-08 14:30:00,
2013-05-08 10:35:00,61.9,58.3,30.29,East,90,4.0,15.0,88,0.00,,OVC220,0.00,VWS V14.01,2013-05-08 14:35:00,
2013-05-08 10:40:00,62.3,58.7,30.29,East,90,4.0,27.0,88,0.00,,OVC220,0.00,VWS V14.01,2013-05-08 14:40:00,
2013-05-08 10:45:00,62.5,58.6,30.29,East,90,2.0,26.0,87,0.00,,OVC220,0.00,VWS V14.01,2013-05-08 14:45:00,
2013-05-08 10:50:00,62.7,58.5,30.29,East,90,0.0,16.0,86,0.00,,OVC220,0.00,VWS V14.01,2013-05-08 14:50:00,
2013-05-08 10:55:00,62.8,58.6,30.29,East,90,1.0,7.0,86,0.00,,OVC220,0.00,VWS V14.01,2013-05-08 14:55:00,
2013-05-08 11:00:00,62.9,58.7,30.28,East,90,1.0,24.0,86,0.00,,OVC220,0.00,VWS V14.01,2013-05-08 15:00:00,
2013-05-08 11:05:00,63.0,58.8,30.28,East,90,4.0,22.0,86,0.00,,OVC220,0.00,VWS V14.01,2013-05-08 15:05:00,
2013-05-08 11:10:00,63.2,59.0,30.28,East,90,0.0,2.0,86,0.00,,OVC220,0.00,VWS V14.01,2013-05-08 15:10:00,
2013-05-08 11:15:00,63.2,59.0,30.28,East,90,4.0,15.0,86,0.00,,OVC220,0.00,VWS V14.01,2013-05-08 15:15:00,
2013-05-08 11:20:00,63.3,58.7,30.28,East,90,7.0,22.0,85,0.00,,OVC220,0.00,VWS V14.01,2013-05-08 15:20:00,
2013-05-08 11:25:00,63.5,58.6,30.28,East,90,4.0,9.0,84,0.00,,OVC220,0.00,VWS V14.01,2013-05-08 15:25:00,
2013-05-08 11:30:00,63.8,58.9,30.28,East,90,3.0,14.0,84,0.00,,OVC220,0.00,VWS V14.01,2013-05-08 15:30:00,
2013-05-08 11:35:00,63.7,58.8,30.28,East,90,8.0,16.0,84,0.00,,OVC220,0.00,VWS V14.01,2013-05-08 15:35:00,
2013-05-08 11:40:00,63.6,59.3,30.28,East,90,6.0,15.0,86,0.00,,OVC220,0.00,VWS V14.01,2013-05-08 15:40:00,
2013-05-08 11:45:00,63.5,59.2,30.27,East,90,5.0,11.0,86,0.00,,OVC220,0.00,VWS V14.01,2013-05-08 15:45:00,
2013-05-08 11:50:00,63.4,59.2,30.27,ENE,68,9.0,25.0,86,0.00,,OVC220,0.00,VWS V14.01,2013-05-08 15:50:00,
2013-05-08 11:55:00,63.2,59.0,30.27,ENE,68,8.0,19.0,86,0.00,,OVC220,0.00,VWS V14.01,2013-05-08 15:55:00,
2013-05-08 12:00:00,63.2,59.6,30.26,ENE,68,5.0,15.0,88,0.00,,OVC220,0.00,VWS V14.01,2013-05-08 16:00:00,
2013-05-08 12:05:00,63.4,59.5,30.25,ENE,68,8.0,25.0,87,0.00,,OVC220,0.00,VWS V14.01,2013-05-08 16:05:00,
2013-05-08 12:10:00,63.5,59.2,30.25,East,90,10.0,24.0,86,0.00,,OVC220,0.00,VWS V14.01,2013-05-08 16:10:00,
2013-05-08 12:15:00,63.7,59.4,30.25,ESE,112,8.0,31.0,86,0.00,,OVC220,0.00,VWS V14.01,2013-05-08 16:15:00,
2013-05-08 12:20:00,63.9,59.0,30.25,ESE,112,10.0,40.0,84,0.00,,OVC220,0.00,VWS V14.01,2013-05-08 16:20:00,
2013-05-08 12:25:00,64.0,58.7,30.25,ESE,112,9.0,40.0,83,0.00,,OVC220,0.00,VWS V14.01,2013-05-08 16:25:00,
2013-05-08 12:30:00,64.1,59.2,30.25,South,180,6.0,24.0,84,0.00,,OVC220,0.00,VWS V14.01,2013-05-08 16:30:00,
2013-05-08 12:35:00,64.3,58.7,30.24,ESE,112,5.0,13.0,82,0.00,,OVC220,0.00,VWS V14.01,2013-05-08 16:35:00,
2013-05-08 12:40:00,64.5,58.9,30.24,SE,135,8.0,16.0,82,0.00,,OVC220,0.00,VWS V14.01,2013-05-08 16:40:00,
2013-05-08 12:45:00,64.7,58.4,30.24,ESE,112,10.0,23.0,80,0.00,,OVC220,0.00,VWS V14.01,2013-05-08 16:45:00,
2013-05-08 12:50:00,64.9,58.9,30.24,SSE,158,10.0,19.0,81,0.00,,OVC220,0.00,VWS V14.01,2013-05-08 16:50:00,
2013-05-08 12:55:00,65.1,59.1,30.24,ESE,112,8.0,25.0,81,0.00,,OVC220,0.00,VWS V14.01,2013-05-08 16:55:00,
2013-05-08 13:00:00,65.3,59.0,30.24,East,90,8.0,38.0,80,0.00,,OVC220,0.00,VWS V14.01,2013-05-08 17:00:00,
2013-05-08 13:05:00,65.4,59.8,30.23,ESE,112,7.0,15.0,82,0.00,,OVC220,0.00,VWS V14.01,2013-05-08 17:05:00,
2013-05-08 13:55:00,65.4,59.8,30.23,ESE,112,7.0,15.0,82,0.00,,OVC220,0.00,VWS V14.01,2013-05-08 17:55:00,
2013-05-08 14:00:00,66.6,58.1,30.21,SE,136,8.0,9.0,74,0.00,,OVC100,0.00,VWS V14.01,2013-05-08 18:00:00,
2013-05-08 14:05:00,66.1,58.3,30.22,ESE,119,10.0,11.0,76,0.00,,OVC100,0.00,VWS V14.01,2013-05-08 18:05:00,
2013-05-08 14:10:00,65.6,57.5,30.21,SE,124,8.0,13.0,75,0.00,,OVC100,0.00,VWS V14.01,2013-05-08 18:10:00,
2013-05-08 14:15:00,64.3,57.7,30.22,SE,127,15.0,18.0,79,0.01,,OVC100,0.01,VWS V14.01,2013-05-08 18:15:00,
2013-05-08 14:20:00,62.7,57.8,30.22,SE,134,7.0,7.0,84,0.02,,OVC100,0.02,VWS V14.01,2013-05-08 18:20:00,
2013-05-08 14:25:00,61.9,58.6,30.23,SE,135,10.0,13.0,89,0.03,,OVC100,0.03,VWS V14.01,2013-05-08 18:25:00,
2013-05-08 14:30:00,61.4,58.8,30.23,SSE,159,11.0,29.0,91,0.04,,OVC100,0.04,VWS V14.01,2013-05-08 18:30:00,
2013-05-08 14:35:00,61.1,58.8,30.23,SSE,159,6.0,8.0,92,0.05,,OVC100,0.05,VWS V14.01,2013-05-08 18:35:00,
2013-05-08 14:40:00,61.1,59.4,30.22,SSE,148,0.0,2.0,94,0.06,,OVC100,0.06,VWS V14.01,2013-05-08 18:40:00,
2013-05-08 14:45:00,61.0,59.6,30.21,NE,44,0.0,0.0,95,0.10,,OVC100,0.10,VWS V14.01,2013-05-08 18:45:00,
2013-05-08 14:50:00,60.8,59.4,30.21,ESE,122,3.0,4.0,95,0.12,,OVC100,0.12,VWS V14.01,2013-05-08 18:50:00,
2013-05-08 14:55:00,60.5,59.4,30.22,SSE,150,4.0,6.0,96,0.15,,OVC100,0.15,VWS V14.01,2013-05-08 18:55:00,
2013-05-08 15:00:00,60.3,59.2,30.21,ENE,63,2.0,7.0,96,0.18,,OVC060,0.18,VWS V14.01,2013-05-08 19:00:00,
2013-05-08 15:05:00,60.3,59.5,30.21,ENE,65,0.0,3.0,97,0.19,,OVC060,0.19,VWS V14.01,2013-05-08 19:05:00,
2013-05-08 15:10:00,60.5,59.7,30.21,ENE,66,0.0,0.0,97,0.20,,OVC060,0.20,VWS V14.01,2013-05-08 19:10:00,
2013-05-08 15:15:00,60.5,59.9,30.21,ENE,66,0.0,4.0,98,0.19,,OVC060,0.20,VWS V14.01,2013-05-08 19:15:00,
2013-05-08 15:20:00,60.3,59.7,30.21,ENE,67,0.0,3.0,98,0.18,,OVC060,0.20,VWS V14.01,2013-05-08 19:20:00,
2013-05-08 15:25:00,60.3,59.7,30.21,ENE,67,0.0,0.0,98,0.17,,OVC060,0.20,VWS V14.01,2013-05-08 19:25:00,
2013-05-08 15:30:00,60.3,59.7,30.20,ESE,103,5.0,9.0,98,0.16,,RA,0.20,VWS V14.01,2013-05-08 19:30:00,
2013-05-08 15:35:00,60.2,59.6,30.21,SE,140,0.0,0.0,98,0.15,,RA,0.20,VWS V14.01,2013-05-08 19:35:00,
2013-05-08 15:40:00,60.0,59.4,30.21,SE,142,1.0,3.0,98,0.14,,RA,0.20,VWS V14.01,2013-05-08 19:40:00,
2013-05-08 15:48:00,59.9,59.3,30.21,SSE,167,3.0,17.0,98,0.10,,RA,0.20,VWS V14.01,2013-05-08 19:48:00,
2013-05-08 15:53:00,59.7,59.1,30.21,SSE,167,7.0,8.0,98,0.08,,RA,0.20,VWS V14.01,2013-05-08 19:53:00,
2013-05-08 15:59:00,59.5,59.2,30.21,SSE,167,9.0,11.0,99,0.05,,RA,0.20,VWS V14.01,2013-05-08 19:59:00,
2013-05-08 16:05:00,59.4,59.1,30.21,SSE,167,0.0,6.0,99,0.02,,-RA,0.20,VWS V14.01,2013-05-08 20:05:00,
2013-05-08 16:10:00,59.4,59.1,30.21,SSE,167,0.0,0.0,99,0.01,,-RA,0.20,VWS V14.01,2013-05-08 20:10:00,
2013-05-08 16:15:00,59.4,59.1,30.21,SSE,167,0.0,0.0,99,0.00,,-RA,0.20,VWS V14.01,2013-05-08 20:15:00,
2013-05-08 16:20:00,59.2,58.9,30.21,SSE,167,2.0,9.0,99,0.00,,-RA,0.20,VWS V14.01,2013-05-08 20:20:00,
2013-05-08 16:25:00,59.2,58.9,30.21,SSE,167,3.0,13.0,99,0.00,,-RA,0.20,VWS V14.01,2013-05-08 20:25:00,
2013-05-08 16:30:00,59.1,58.8,30.21,SSE,167,6.0,6.0,99,0.00,,-RA,0.20,VWS V14.01,2013-05-08 20:30:00,
2013-05-08 16:35:00,59.1,58.8,30.21,SSE,167,0.0,5.0,99,0.00,,-RA,0.20,VWS V14.01,2013-05-08 20:35:00,
2013-05-08 16:40:00,59.2,58.9,30.21,SSE,167,0.0,3.0,99,0.00,,-RA,0.20,VWS V14.01,2013-05-08 20:40:00,
2013-05-08 16:45:00,59.4,59.1,30.21,SSE,167,0.0,0.0,99,0.00,,-RA,0.20,VWS V14.01,2013-05-08 20:45:00,
2013-05-08 16:50:00,59.4,59.4,30.21,SSE,167,0.0,0.0,100,0.00,,-RA,0.20,VWS V14.01,2013-05-08 20:50:00,
2013-05-08 16:55:00,59.4,59.4,30.21,SSE,167,0.0,0.0,100,0.00,,-RA,0.20,VWS V14.01,2013-05-08 20:55:00,
2013-05-08 17:00:00,59.2,59.2,30.21,SSE,167,0.0,0.0,100,0.00,,OVC020,0.20,VWS V14.01,2013-05-08 21:00:00,
2013-05-08 17:06:00,59.2,59.2,30.21,SSE,167,4.0,9.0,100,0.00,,OVC020,0.20,VWS V14.01,2013-05-08 21:06:00,
2013-05-08 17:11:00,59.1,59.1,30.21,SSE,167,2.0,5.0,100,0.00,,OVC020,0.20,VWS V14.01,2013-05-08 21:11:00,
2013-05-08 17:16:00,59.1,59.1,30.21,SSE,167,0.0,0.0,100,0.00,,OVC020,0.20,VWS V14.01,2013-05-08 21:16:00,
2013-05-08 17:21:00,59.1,59.1,30.21,SSE,167,0.0,0.0,100,0.00,,OVC020,0.20,VWS V14.01,2013-05-08 21:21:00,
2013-05-08 17:26:00,59.4,59.4,30.20,SSE,167,0.0,0.0,100,0.01,,OVC020,0.21,VWS V14.01,2013-05-08 21:26:00,
2013-05-08 17:31:00,59.2,59.2,30.20,SSE,167,0.0,0.0,100,0.01,,OVC012,0.21,VWS V14.01,2013-05-08 21:31:00,
2013-05-08 17:36:00,59.2,59.2,30.20,SSE,167,5.0,9.0,100,0.01,,OVC012,0.21,VWS V14.01,2013-05-08 21:36:00,
2013-05-08 17:41:00,59.1,59.1,30.20,SSE,167,0.0,0.0,100,0.02,,OVC012,0.22,VWS V14.01,2013-05-08 21:41:00,
2013-05-08 17:46:00,58.9,58.9,30.20,SSE,167,0.0,0.0,100,0.02,,OVC012,0.22,VWS V14.01,2013-05-08 21:46:00,
2013-05-08 17:51:00,58.8,58.8,30.20,SSE,167,2.0,8.0,100,0.02,,OVC012,0.22,VWS V14.01,2013-05-08 21:51:00,
2013-05-08 17:56:00,58.6,58.6,30.20,SSE,167,0.0,0.0,100,0.02,,OVC012,0.22,VWS V14.01,2013-05-08 21:56:00,
2013-05-08 18:01:00,58.6,58.6,30.20,SSE,167,0.0,1.0,100,0.02,,OVC014,0.22,VWS V14.01,2013-05-08 22:01:00,
2013-05-08 18:06:00,58.6,58.6,30.20,SSE,167,0.0,0.0,100,0.02,,OVC014,0.22,VWS V14.01,2013-05-08 22:06:00,
2013-05-08 18:11:00,58.6,58.6,30.20,SSE,167,0.0,0.0,100,0.02,,OVC014,0.22,VWS V14.01,2013-05-08 22:11:00,
2013-05-08 18:16:00,58.5,58.5,30.20,SSE,167,0.0,3.0,100,0.02,,OVC014,0.22,VWS V14.01,2013-05-08 22:16:00,
2013-05-08 18:21:00,58.3,58.3,30.20,SSE,167,0.0,4.0,100,0.02,,OVC014,0.22,VWS V14.01,2013-05-08 22:21:00,
2013-05-08 18:26:00,58.3,58.3,30.20,SSE,167,0.0,0.0,100,0.01,,OVC014,0.22,VWS V14.01,2013-05-08 22:26:00,
2013-05-08 18:31:00,58.3,58.3,30.19,SSE,167,0.0,4.0,100,0.01,,OVC014,0.22,VWS V14.01,2013-05-08 22:31:00,
2013-05-08 18:36:00,58.3,58.3,30.19,SSE,167,0.0,0.0,100,0.01,,OVC014,0.22,VWS V14.01,2013-05-08 22:36:00,
2013-05-08 18:41:00,58.3,58.3,30.19,SSE,167,0.0,1.0,100,0.00,,OVC014,0.22,VWS V14.01,2013-05-08 22:41:00,
2013-05-08 18:46:00,58.3,58.3,30.18,SSE,167,0.0,0.0,100,0.00,,OVC014,0.22,VWS V14.01,2013-05-08 22:46:00,
2013-05-08 18:51:00,58.2,58.2,30.19,SSE,167,1.0,5.0,100,0.00,,OVC014,0.22,VWS V14.01,2013-05-08 22:51:00,
2013-05-08 18:56:00,58.0,58.0,30.19,SSE,167,0.0,0.0,100,0.00,,OVC014,0.22,VWS V14.01,2013-05-08 22:56:00,
2013-05-08 19:01:00,57.7,57.7,30.19,SSE,167,0.0,0.0,100,0.00,,OVC014,0.22,VWS V14.01,2013-05-08 23:01:00,
2013-05-08 19:06:00,57.7,57.7,30.19,SSE,167,0.0,0.0,100,0.00,,OVC014,0.22,VWS V14.01,2013-05-08 23:06:00,
2013-05-08 19:11:00,57.7,57.7,30.19,SSE,167,0.0,0.0,100,0.00,,OVC014,0.22,VWS V14.01,2013-05-08 23:11:00,
2013-05-08 19:16:00,57.6,57.6,30.19,SSE,167,0.0,0.0,100,0.00,,OVC014,0.22,VWS V14.01,2013-05-08 23:16:00,
2013-05-08 19:21:00,57.4,57.4,30.20,SSE,167,0.0,12.0,100,0.00,,OVC014,0.22,VWS V14.01,2013-05-08 23:21:00,
2013-05-08 19:26:00,57.3,57.3,30.20,SSE,167,0.0,0.0,100,0.00,,OVC014,0.22,VWS V14.01,2013-05-08 23:26:00,
2013-05-08 19:31:00,57.3,57.3,30.20,SSE,167,0.0,0.0,100,0.00,,OVC014,0.22,VWS V14.01,2013-05-08 23:31:00,
2013-05-08 19:36:00,57.3,57.3,30.20,SSE,167,0.0,0.0,100,0.00,,OVC014,0.22,VWS V14.01,2013-05-08 23:36:00,
2013-05-08 19:41:00,57.3,57.3,30.20,SSE,167,0.0,0.0,100,0.00,,OVC014,0.22,VWS V14.01,2013-05-08 23:41:00,
2013-05-08 19:46:00,57.3,57.3,30.20,SSE,167,0.0,0.0,100,0.00,,OVC014,0.22,VWS V14.01,2013-05-08 23:46:00,
2013-05-08 19:51:00,57.1,57.1,30.20,SSE,167,0.0,0.0,100,0.00,,OVC014,0.22,VWS V14.01,2013-05-08 23:51:00,
2013-05-08 19:56:00,57.1,57.1,30.20,SSE,167,0.0,0.0,100,0.00,,OVC014,0.22,VWS V14.01,2013-05-08 23:56:00,
2013-05-08 20:01:00,57.1,57.1,30.20,SSE,167,0.0,0.0,100,0.00,,OVC014,0.22,VWS V14.01,2013-05-09 00:01:00,
2013-05-08 20:06:00,57.3,57.3,30.20,SSE,167,0.0,0.0,100,0.00,,OVC014,0.22,VWS V14.01,2013-05-09 00:06:00,
2013-05-08 20:11:00,57.1,57.1,30.20,SSE,167,0.0,0.0,100,0.00,,OVC014,0.22,VWS V14.01,2013-05-09 00:11:00,
2013-05-08 20:16:00,57.1,57.1,30.20,SSE,167,0.0,0.0,100,0.00,,OVC014,0.22,VWS V14.01,2013-05-09 00:16:00,
2013-05-08 20:21:00,57.1,57.1,30.20,SSE,167,0.0,0.0,100,0.00,,OVC014,0.22,VWS V14.01,2013-05-09 00:21:00,
2013-05-08 20:26:00,57.1,57.1,30.20,SSE,167,0.0,0.0,100,0.00,,OVC014,0.22,VWS V14.01,2013-05-09 00:26:00,
2013-05-08 20:31:00,57.1,57.1,30.20,SSE,167,0.0,0.0,100,0.00,,OVC014,0.22,VWS V14.01,2013-05-09 00:31:00,
2013-05-08 20:35:00,57.1,57.1,30.20,SSE,167,0.0,0.0,100,0.00,,OVC014,0.22,VWS V14.01,2013-05-09 00:35:00,
2013-05-08 20:40:00,57.1,57.1,30.20,SSE,167,0.0,0.0,100,0.00,,OVC014,0.22,VWS V14.01,2013-05-09 00:40:00,
2013-05-08 20:45:00,57.1,57.1,30.20,SSE,167,0.0,0.0,100,0.00,,OVC014,0.22,VWS V14.01,2013-05-09 00:45:00,
2013-05-08 20:50:00,57.1,57.1,30.21,SSE,167,0.0,0.0,100,0.00,,OVC014,0.22,VWS V14.01,2013-05-09 00:50:00,
2013-05-08 20:55:00,57.1,57.1,30.21,SSE,167,0.0,0.0,100,0.00,,OVC014,0.22,VWS V14.01,2013-05-09 00:55:00,
2013-05-08 21:00:00,57.1,57.1,30.21,SSE,167,0.0,0.0,100,0.00,,OVC008,0.22,VWS V14.01,2013-05-09 01:00:00,
2013-05-08 21:05:00,57.1,57.1,30.21,SSE,167,0.0,0.0,100,0.00,,OVC008,0.22,VWS V14.01,2013-05-09 01:05:00,
2013-05-08 21:10:00,57.1,57.1,30.21,SSE,167,0.0,0.0,100,0.00,,OVC008,0.22,VWS V14.01,2013-05-09 01:10:00,
2013-05-08 21:15:00,57.1,57.1,30.21,SSE,167,1.0,11.0,100,0.00,,OVC008,0.22,VWS V14.01,2013-05-09 01:15:00,
2013-05-08 21:20:00,57.1,57.1,30.21,SSE,167,0.0,0.0,100,0.00,,OVC008,0.22,VWS V14.01,2013-05-09 01:20:00,
2013-05-08 21:25:00,57.1,57.1,30.21,SSE,167,0.0,0.0,100,0.00,,OVC008,0.22,VWS V14.01,2013-05-09 01:25:00,
2013-05-08 21:30:00,57.0,57.0,30.21,SSE,167,0.0,0.0,100,0.00,,OVC008,0.22,VWS V14.01,2013-05-09 01:30:00,
2013-05-08 21:35:00,57.0,57.0,30.21,SSE,167,0.0,0.0,100,0.00,,OVC008,0.22,VWS V14.01,2013-05-09 01:35:00,
2013-05-08 21:40:00,56.8,56.8,30.22,SSE,167,0.0,0.0,100,0.00,,OVC008,0.22,VWS V14.01,2013-05-09 01:40:00,
2013-05-08 21:45:00,56.6,56.6,30.22,SSE,167,0.0,0.0,100,0.00,,OVC008,0.22,VWS V14.01,2013-05-09 01:45:00,
2013-05-08 21:50:00,56.6,56.6,30.22,SSE,167,0.0,0.0,100,0.00,,OVC008,0.22,VWS V14.01,2013-05-09 01:50:00,
2013-05-08 21:55:00,56.6,56.6,30.22,SSE,167,0.0,0.0,100,0.00,,OVC008,0.22,VWS V14.01,2013-05-09 01:55:00,
2013-05-08 22:00:00,56.6,56.6,30.22,SSE,167,0.0,0.0,100,0.00,,OVC014,0.22,VWS V14.01,2013-05-09 02:00:00,
2013-05-08 22:05:00,56.6,56.6,30.22,SSE,167,0.0,0.0,100,0.00,,OVC014,0.22,VWS V14.01,2013-05-09 02:05:00,
2013-05-08 22:10:00,56.6,56.6,30.22,SSE,167,0.0,0.0,100,0.00,,OVC014,0.22,VWS V14.01,2013-05-09 02:10:00,
2013-05-08 22:15:00,56.6,56.6,30.22,SSE,167,0.0,0.0,100,0.00,,OVC014,0.22,VWS V14.01,2013-05-09 02:15:00,
2013-05-08 22:20:00,56.5,56.5,30.23,SSE,167,0.0,0.0,100,0.00,,OVC014,0.22,VWS V14.01,2013-05-09 02:20:00,
2013-05-08 22:25:00,56.5,56.5,30.22,SSE,167,0.0,0.0,100,0.00,,OVC014,0.22,VWS V14.01,2013-05-09 02:25:00,
2013-05-08 22:30:00,56.5,56.5,30.22,SSE,167,0.0,0.0,100,0.00,,OVC014,0.22,VWS V14.01,2013-05-09 02:30:00,
2013-05-08 22:35:00,56.3,56.3,30.22,SSE,167,0.0,0.0,100,0.00,,OVC014,0.22,VWS V14.01,2013-05-09 02:35:00,
2013-05-08 22:40:00,56.3,56.3,30.21,SSE,167,0.0,0.0,100,0.00,,OVC014,0.22,VWS V14.01,2013-05-09 02:40:00,
2013-05-08 22:45:00,56.2,56.2,30.22,SSE,167,0.0,0.0,100,0.00,,OVC014,0.22,VWS V14.01,2013-05-09 02:45:00,
2013-05-08 22:50:00,56.0,56.0,30.22,SSE,167,0.0,0.0,100,0.00,,OVC014,0.22,VWS V14.01,2013-05-09 02:50:00,
2013-05-08 22:55:00,55.7,55.7,30.22,SSE,167,0.0,0.0,100,0.00,,OVC014,0.22,VWS V14.01,2013-05-09 02:55:00,
2013-05-08 23:00:00,55.6,55.6,30.21,SSE,167,0.0,0.0,100,0.00,,OVC011,0.22,VWS V14.01,2013-05-09 03:00:00,
2013-05-08 23:05:00,55.5,55.5,30.22,SSE,167,0.0,0.0,100,0.00,,OVC011,0.22,VWS V14.01,2013-05-09 03:05:00,
2013-05-08 23:10:00,55.2,55.2,30.21,SSE,167,0.0,0.0,100,0.00,,OVC011,0.22,VWS V14.01,2013-05-09 03:10:00,
2013-05-08 23:15:00,55.0,55.0,30.21,SSE,167,0.0,0.0,100,0.00,,OVC015,0.22,VWS V14.01,2013-05-09 03:15:00,
2013-05-08 23:20:00,54.9,54.9,30.21,SSE,167,0.0,0.0,100,0.00,,OVC015,0.22,VWS V14.01,2013-05-09 03:20:00,
2013-05-08 23:25:00,54.7,54.7,30.21,SSE,167,0.0,0.0,100,0.00,,OVC015,0.22,VWS V14.01,2013-05-09 03:25:00,
2013-05-08 23:30:00,54.7,54.7,30.21,SSE,167,0.0,0.0,100,0.00,,OVC015,0.22,VWS V14.01,2013-05-09 03:30:00,
2013-05-08 23:35:00,54.6,54.6,30.21,SSE,167,0.0,0.0,100,0.00,,OVC015,0.22,VWS V14.01,2013-05-09 03:35:00,
2013-05-08 23:40:00,54.4,54.4,30.21,SSE,167,0.0,0.0,100,0.00,,OVC015,0.22,VWS V14.01,2013-05-09 03:40:00,
2013-05-08 23:45:00,54.3,54.3,30.20,SSE,167,0.0,0.0,100,0.00,,OVC015,0.22,VWS V14.01,2013-05-09 03:45:00,
2013-05-08 23:50:00,54.1,54.1,30.21,SSE,167,0.0,0.0,100,0.00,,OVC015,0.22,VWS V14.01,2013-05-09 03:50:00,
2013-05-08 23:55:00,53.8,53.8,30.21,SSE,167,0.0,0.0,100,0.00,,OVC015,0.22,VWS V14.01,2013-05-09 03:55:00,